Torna al catalogo

CZ-3B DEB

AttivoHEO
NORAD 42458·DEBRIS·🇨🇳 China

Lanciato Sep 4, 2010 da Xichang Satellite Launch Center

Loading…

Prossimi Passaggi (prossime 24 ore)

TLE

AggiornatoSource: Space-Track

Epoca: Sep 13, 2026, 20:59 UTC

1 42458U 10042Z   26256.87448042  .00000017  00000-0  19322-2 0  9995
2 42458  29.4803 229.7127 7512433 265.4787  14.2977  1.81318839 78080

Traccia CZ-3B DEB in tempo reale con AllMySat

Download on the App Store